Time,TemperatureF,DewpointF,PressureIn,WindDirection,WindDirectionDegrees,WindSpeedMPH,WindSpeedGustMPH,Humidity,HourlyPrecipIn,Conditions,Clouds,dailyrainin,SoftwareType,DateUTC
2013-06-18 00:02:00,57.0,52.0,29.74,West,281,0.0,-999.0,82,-99.99,,,-99.99,,2013-06-18 07:02:00,
2013-06-18 00:12:00,56.0,50.0,29.75,West,281,0.0,-999.0,81,-99.99,,,-99.99,,2013-06-18 07:12:00,
2013-06-18 00:22:00,55.0,50.0,29.75,West,281,0.0,-999.0,83,-99.99,,,-99.99,,2013-06-18 07:22:00,
2013-06-18 00:33:00,55.0,50.0,29.75,West,281,0.0,-999.0,83,-99.99,,,-99.99,,2013-06-18 07:33:00,
2013-06-18 00:43:00,55.0,50.0,29.75,West,281,0.0,-999.0,84,-99.99,,,-99.99,,2013-06-18 07:43:00,
2013-06-18 00:52:00,55.0,50.0,29.75,West,281,0.0,-999.0,84,-99.99,,,-99.99,,2013-06-18 07:52:00,
2013-06-18 01:01:00,54.0,50.0,29.75,West,281,0.0,-999.0,85,-99.99,,,-99.99,,2013-06-18 08:01:00,
2013-06-18 01:11:00,53.0,49.0,29.76,West,281,0.0,-999.0,86,-99.99,,,-99.99,,2013-06-18 08:11:00,
2013-06-18 01:22:00,53.0,49.0,29.76,West,281,0.0,-999.0,87,-99.99,,,-99.99,,2013-06-18 08:22:00,
2013-06-18 01:32:00,53.0,49.0,29.76,West,281,0.0,-999.0,87,-99.99,,,-99.99,,2013-06-18 08:32:00,
2013-06-18 01:43:00,53.0,50.0,29.76,West,281,0.0,-999.0,88,-99.99,,,-99.99,,2013-06-18 08:43:00,
2013-06-18 01:52:00,53.0,50.0,29.76,West,281,0.0,-999.0,88,-99.99,,,-99.99,,2013-06-18 08:52:00,
2013-06-18 02:01:00,53.0,50.0,29.77,West,281,0.0,-999.0,88,-99.99,,,-99.99,,2013-06-18 09:01:00,
2013-06-18 02:11:00,52.0,49.0,29.76,West,281,0.0,-999.0,88,-99.99,,,-99.99,,2013-06-18 09:11:00,
2013-06-18 02:22:00,52.0,49.0,29.76,West,281,0.0,-999.0,88,-99.99,,,-99.99,,2013-06-18 09:22:00,
2013-06-18 02:34:00,51.0,49.0,29.77,West,281,0.0,-999.0,92,-99.99,,,-99.99,,2013-06-18 09:34:00,
2013-06-18 02:42:00,51.0,48.0,29.78,West,281,0.0,-999.0,90,-99.99,,,-99.99,,2013-06-18 09:42:00,
2013-06-18 02:53:00,51.0,48.0,29.78,West,281,0.0,-999.0,90,-99.99,,,-99.99,,2013-06-18 09:53:00,
2013-06-18 03:01:00,51.0,48.0,29.78,West,281,0.0,-999.0,89,-99.99,,,-99.99,,2013-06-18 10:01:00,
2013-06-18 03:11:00,50.0,47.0,29.78,West,281,0.0,-999.0,90,-99.99,,,-99.99,,2013-06-18 10:11:00,
2013-06-18 03:22:00,49.0,46.0,29.78,West,281,0.0,-999.0,91,-99.99,,,-99.99,,2013-06-18 10:22:00,
2013-06-18 03:33:00,49.0,46.0,29.78,West,281,0.0,-999.0,91,-99.99,,,-99.99,,2013-06-18 10:33:00,
2013-06-18 03:43:00,49.0,46.0,29.79,West,281,0.0,-999.0,91,-99.99,,,-99.99,,2013-06-18 10:43:00,
2013-06-18 03:53:00,49.0,46.0,29.79,West,281,0.0,-999.0,91,-99.99,,,-99.99,,2013-06-18 10:53:00,
2013-06-18 04:02:00,49.0,46.0,29.79,West,281,0.0,-999.0,91,-99.99,,,-99.99,,2013-06-18 11:02:00,
2013-06-18 04:11:00,48.0,45.0,29.80,West,281,0.0,-999.0,91,-99.99,,,-99.99,,2013-06-18 11:11:00,
2013-06-18 04:22:00,48.0,46.0,29.80,West,281,0.0,-999.0,92,-99.99,,,-99.99,,2013-06-18 11:22:00,
2013-06-18 04:32:00,48.0,46.0,29.80,West,281,0.0,-999.0,92,-99.99,,,-99.99,,2013-06-18 11:32:00,
2013-06-18 04:42:00,48.0,46.0,29.81,West,281,0.0,-999.0,92,-99.99,,,-99.99,,2013-06-18 11:42:00,
2013-06-18 04:52:00,48.0,46.0,29.81,West,281,0.0,-999.0,92,-99.99,,,-99.99,,2013-06-18 11:52:00,
2013-06-18 05:01:00,48.0,46.0,29.81,West,281,0.0,-999.0,92,-99.99,,,-99.99,,2013-06-18 12:01:00,
2013-06-18 05:11:00,47.0,45.0,29.82,West,281,0.0,-999.0,92,-99.99,,,-99.99,,2013-06-18 12:11:00,
2013-06-18 05:22:00,47.0,45.0,29.82,West,281,0.0,-999.0,92,-99.99,,,-99.99,,2013-06-18 12:22:00,
2013-06-18 05:32:00,47.0,45.0,29.82,West,281,0.0,-999.0,92,-99.99,,,-99.99,,2013-06-18 12:32:00,
2013-06-18 05:42:00,46.0,44.0,29.83,West,281,0.0,-999.0,93,-99.99,,,-99.99,,2013-06-18 12:42:00,
2013-06-18 05:52:00,46.0,44.0,29.83,West,281,0.0,-999.0,93,-99.99,,,-99.99,,2013-06-18 12:52:00,
2013-06-18 06:01:00,46.0,44.0,29.83,West,281,0.0,-999.0,93,-99.99,,,-99.99,,2013-06-18 13:01:00,
2013-06-18 06:11:00,47.0,45.0,29.83,West,281,0.0,-999.0,92,-99.99,,,-99.99,,2013-06-18 13:11:00,
2013-06-18 06:22:00,48.0,46.0,29.83,West,281,0.0,-999.0,92,-99.99,,,-99.99,,2013-06-18 13:22:00,
2013-06-18 06:33:00,48.0,46.0,29.83,West,281,0.0,-999.0,92,-99.99,,,-99.99,,2013-06-18 13:33:00,
2013-06-18 06:43:00,50.0,47.0,29.83,West,281,0.0,-999.0,90,-99.99,,,-99.99,,2013-06-18 13:43:00,
2013-06-18 06:52:00,50.0,47.0,29.83,West,281,0.0,-999.0,90,-99.99,,,-99.99,,2013-06-18 13:52:00,
2013-06-18 07:02:00,51.0,47.0,29.84,WNW,298,0.0,-999.0,87,-99.99,,,-99.99,,2013-06-18 14:02:00,
2013-06-18 07:11:00,54.0,49.0,29.83,WNW,298,0.0,-999.0,84,-99.99,,,-99.99,,2013-06-18 14:11:00,
2013-06-18 07:22:00,57.0,50.0,29.84,WNW,298,0.0,-999.0,78,-99.99,,,-99.99,,2013-06-18 14:22:00,
2013-06-18 07:33:00,57.0,50.0,29.84,WNW,298,0.0,-999.0,78,-99.99,,,-99.99,,2013-06-18 14:33:00,
2013-06-18 07:52:00,59.0,51.0,29.84,WNW,298,0.0,-999.0,75,-99.99,,,-99.99,,2013-06-18 14:52:00,
2013-06-18 08:01:00,59.0,50.0,29.85,West,281,0.0,-999.0,72,-99.99,,,-99.99,,2013-06-18 15:01:00,
2013-06-18 08:11:00,60.0,49.0,29.84,West,270,2.0,-999.0,68,-99.99,,,-99.99,,2013-06-18 15:11:00,
2013-06-18 08:22:00,60.0,49.0,29.85,NW,308,0.0,-999.0,67,-99.99,,,-99.99,,2013-06-18 15:22:00,
2013-06-18 08:33:00,60.0,49.0,29.85,NW,308,0.0,-999.0,67,-99.99,,,-99.99,,2013-06-18 15:33:00,
2013-06-18 08:42:00,60.0,50.0,29.84,NW,312,2.0,-999.0,69,-99.99,,,-99.99,,2013-06-18 15:42:00,
2013-06-18 08:52:00,60.0,50.0,29.84,NW,312,2.0,-999.0,69,-99.99,,,-99.99,,2013-06-18 15:52:00,
2013-06-18 09:01:00,61.0,50.0,29.84,WNW,290,2.0,-999.0,67,-99.99,,,-99.99,,2013-06-18 16:01:00,
2013-06-18 09:11:00,62.0,50.0,29.84,West,281,3.0,-999.0,65,-99.99,,,-99.99,,2013-06-18 16:11:00,
2013-06-18 09:22:00,62.0,51.0,29.83,West,260,4.0,-999.0,67,-99.99,,,-99.99,,2013-06-18 16:22:00,
2013-06-18 09:33:00,62.0,51.0,29.83,West,260,4.0,-999.0,67,-99.99,,,-99.99,,2013-06-18 16:33:00,
2013-06-18 09:43:00,62.0,51.0,29.83,WNW,292,3.0,-999.0,67,-99.99,,,-99.99,,2013-06-18 16:43:00,
2013-06-18 09:52:00,62.0,51.0,29.83,WNW,292,3.0,-999.0,67,-99.99,,,-99.99,,2013-06-18 16:52:00,
2013-06-18 10:01:00,62.0,51.0,29.83,NW,320,3.0,-999.0,66,-99.99,,,-99.99,,2013-06-18 17:01:00,
2013-06-18 10:11:00,63.0,51.0,29.82,West,275,2.0,-999.0,65,-99.99,,,-99.99,,2013-06-18 17:11:00,
2013-06-18 10:22:00,62.0,51.0,29.82,NW,313,2.0,-999.0,68,-99.99,,,-99.99,,2013-06-18 17:22:00,
2013-06-18 10:33:00,62.0,51.0,29.82,NW,313,2.0,-999.0,68,-99.99,,,-99.99,,2013-06-18 17:33:00,
2013-06-18 10:43:00,62.0,51.0,29.82,NW,312,1.0,-999.0,67,-99.99,,,-99.99,,2013-06-18 17:43:00,
2013-06-18 10:53:00,62.0,51.0,29.82,NW,317,2.0,-999.0,67,-99.99,,,-99.99,,2013-06-18 17:53:00,
2013-06-18 11:01:00,62.0,51.0,29.82,NW,317,2.0,-999.0,67,-99.99,,,-99.99,,2013-06-18 18:01:00,
2013-06-18 11:11:00,62.0,51.0,29.82,WNW,301,2.0,-999.0,68,-99.99,,,-99.99,,2013-06-18 18:11:00,
2013-06-18 11:22:00,63.0,51.0,29.81,WNW,302,2.0,-999.0,66,-99.99,,,-99.99,,2013-06-18 18:22:00,
2013-06-18 11:33:00,63.0,51.0,29.81,WNW,302,2.0,-999.0,66,-99.99,,,-99.99,,2013-06-18 18:33:00,
2013-06-18 11:42:00,63.0,51.0,29.81,WNW,302,1.0,-999.0,66,-99.99,,,-99.99,,2013-06-18 18:42:00,
2013-06-18 11:53:00,64.0,52.0,29.80,WNW,302,0.0,-999.0,65,-99.99,,,-99.99,,2013-06-18 18:53:00,
2013-06-18 12:01:00,64.0,52.0,29.80,WNW,302,0.0,-999.0,65,-99.99,,,-99.99,,2013-06-18 19:01:00,
2013-06-18 12:11:00,65.0,52.0,29.80,West,278,2.0,-999.0,62,-99.99,,,-99.99,,2013-06-18 19:11:00,
2013-06-18 12:22:00,65.0,51.0,29.80,West,281,3.0,-999.0,60,-99.99,,,-99.99,,2013-06-18 19:22:00,
2013-06-18 12:33:00,65.0,51.0,29.80,West,281,3.0,-999.0,60,-99.99,,,-99.99,,2013-06-18 19:33:00,
2013-06-18 12:42:00,66.0,52.0,29.79,NW,323,3.0,-999.0,60,-99.99,,,-99.99,,2013-06-18 19:42:00,
2013-06-18 12:52:00,66.0,52.0,29.79,NW,323,3.0,-999.0,60,-99.99,,,-99.99,,2013-06-18 19:52:00,
2013-06-18 13:01:00,67.0,52.0,29.78,West,261,2.0,-999.0,59,-99.99,,,-99.99,,2013-06-18 20:01:00,
2013-06-18 13:11:00,68.0,52.0,29.78,SSW,202,6.0,-999.0,56,-99.99,,,-99.99,,2013-06-18 20:11:00,
2013-06-18 13:22:00,69.0,52.0,29.77,WNW,286,5.0,-999.0,55,-99.99,,,-99.99,,2013-06-18 20:22:00,
2013-06-18 13:33:00,69.0,52.0,29.77,WNW,286,5.0,-999.0,55,-99.99,,,-99.99,,2013-06-18 20:33:00,
2013-06-18 13:43:00,68.0,54.0,29.77,NW,310,3.0,-999.0,61,-99.99,,,-99.99,,2013-06-18 20:43:00,
2013-06-18 13:52:00,68.0,54.0,29.77,NW,310,3.0,-999.0,61,-99.99,,,-99.99,,2013-06-18 20:52:00,
2013-06-18 14:01:00,68.0,53.0,29.76,WNW,290,4.0,-999.0,58,-99.99,,,-99.99,,2013-06-18 21:01:00,
2013-06-18 14:11:00,69.0,53.0,29.76,NW,311,4.0,-999.0,56,-99.99,,,-99.99,,2013-06-18 21:11:00,
2013-06-18 14:22:00,69.0,53.0,29.75,West,276,7.0,-999.0,56,-99.99,,,-99.99,,2013-06-18 21:22:00,
2013-06-18 14:33:00,69.0,53.0,29.75,West,276,7.0,-999.0,56,-99.99,,,-99.99,,2013-06-18 21:33:00,
2013-06-18 14:43:00,70.0,53.0,29.75,WNW,296,6.0,-999.0,55,-99.99,,,-99.99,,2013-06-18 21:43:00,
2013-06-18 14:52:00,69.0,54.0,29.74,WNW,298,5.0,-999.0,59,-99.99,,,-99.99,,2013-06-18 21:52:00,
2013-06-18 15:01:00,69.0,54.0,29.74,WNW,298,5.0,-999.0,59,-99.99,,,-99.99,,2013-06-18 22:01:00,
2013-06-18 15:11:00,71.0,53.0,29.73,WNW,286,6.0,-999.0,53,-99.99,,,-99.99,,2013-06-18 22:11:00,
2013-06-18 15:22:00,70.0,53.0,29.73,West,265,7.0,-999.0,55,-99.99,,,-99.99,,2013-06-18 22:22:00,
2013-06-18 15:34:00,70.0,53.0,29.73,West,265,7.0,-999.0,55,-99.99,,,-99.99,,2013-06-18 22:34:00,
2013-06-18 15:42:00,69.0,53.0,29.72,WNW,282,7.0,-999.0,57,-99.99,,,-99.99,,2013-06-18 22:42:00,
2013-06-18 15:53:00,69.0,53.0,29.72,WNW,282,7.0,-999.0,57,-99.99,,,-99.99,,2013-06-18 22:53:00,
2013-06-18 16:01:00,69.0,53.0,29.72,West,278,7.0,-999.0,57,-99.99,,,-99.99,,2013-06-18 23:01:00,
2013-06-18 16:11:00,68.0,54.0,29.72,NW,315,9.0,-999.0,60,-99.99,,,-99.99,,2013-06-18 23:11:00,
2013-06-18 16:23:00,68.0,54.0,29.72,West,271,9.0,-999.0,60,-99.99,,,-99.99,,2013-06-18 23:23:00,
2013-06-18 16:34:00,68.0,54.0,29.72,West,271,9.0,-999.0,60,-99.99,,,-99.99,,2013-06-18 23:34:00,
2013-06-18 16:44:00,68.0,54.0,29.72,NW,315,10.0,-999.0,61,-99.99,,,-99.99,,2013-06-18 23:44:00,
2013-06-18 16:53:00,68.0,54.0,29.72,NW,315,10.0,-999.0,61,-99.99,,,-99.99,,2013-06-18 23:53:00,
2013-06-18 17:01:00,68.0,54.0,29.73,WNW,288,8.0,-999.0,62,-99.99,,,-99.99,,2013-06-19 00:01:00,
2013-06-18 17:11:00,67.0,54.0,29.74,WNW,285,8.0,-999.0,63,-99.99,,,-99.99,,2013-06-19 00:11:00,
2013-06-18 17:22:00,67.0,54.0,29.74,WNW,301,8.0,-999.0,64,-99.99,,,-99.99,,2013-06-19 00:22:00,
2013-06-18 17:33:00,67.0,54.0,29.74,WNW,301,8.0,-999.0,64,-99.99,,,-99.99,,2013-06-19 00:33:00,
2013-06-18 17:43:00,65.0,54.0,29.74,NW,309,11.0,-999.0,67,-99.99,,,-99.99,,2013-06-19 00:43:00,
2013-06-18 17:53:00,65.0,54.0,29.74,NW,309,11.0,-999.0,67,-99.99,,,-99.99,,2013-06-19 00:53:00,
2013-06-18 18:01:00,64.0,53.0,29.74,WSW,238,10.0,-999.0,68,-99.99,,,-99.99,,2013-06-19 01:01:00,
2013-06-18 18:11:00,63.0,53.0,29.74,WNW,287,10.0,-999.0,70,-99.99,,,-99.99,,2013-06-19 01:11:00,
2013-06-18 18:22:00,63.0,53.0,29.74,WNW,287,10.0,-999.0,70,-99.99,,,-99.99,,2013-06-19 01:22:00,
2013-06-18 18:32:00,63.0,53.0,29.74,WNW,287,10.0,-999.0,70,-99.99,,,-99.99,,2013-06-19 01:32:00,
2013-06-18 18:42:00,63.0,53.0,29.74,WNW,287,10.0,-999.0,70,-99.99,,,-99.99,,2013-06-19 01:42:00,
2013-06-18 18:53:00,63.0,53.0,29.74,WNW,287,10.0,-999.0,70,-99.99,,,-99.99,,2013-06-19 01:53:00,
2013-06-18 19:01:00,62.0,52.0,29.74,WNW,282,8.0,-999.0,71,-99.99,,,-99.99,,2013-06-19 02:01:00,
2013-06-18 19:11:00,62.0,52.0,29.74,WNW,282,8.0,-999.0,71,-99.99,,,-99.99,,2013-06-19 02:11:00,
2013-06-18 19:21:00,62.0,52.0,29.74,WNW,282,8.0,-999.0,71,-99.99,,,-99.99,,2013-06-19 02:21:00,
2013-06-18 19:32:00,62.0,52.0,29.74,WNW,282,8.0,-999.0,71,-99.99,,,-99.99,,2013-06-19 02:32:00,
2013-06-18 19:42:00,59.0,51.0,29.76,West,280,10.0,-999.0,74,-99.99,,,-99.99,,2013-06-19 02:42:00,
2013-06-18 19:51:00,59.0,51.0,29.77,West,265,7.0,-999.0,74,-99.99,,,-99.99,,2013-06-19 02:51:00,
2013-06-18 20:01:00,59.0,51.0,29.77,West,265,7.0,-999.0,74,-99.99,,,-99.99,,2013-06-19 03:01:00,
2013-06-18 20:11:00,59.0,51.0,29.77,West,265,7.0,-999.0,74,-99.99,,,-99.99,,2013-06-19 03:11:00,
2013-06-18 20:21:00,58.0,50.0,29.77,WNW,300,3.0,-999.0,75,-99.99,,,-99.99,,2013-06-19 03:21:00,
2013-06-18 20:32:00,58.0,50.0,29.77,WNW,300,3.0,-999.0,75,-99.99,,,-99.99,,2013-06-19 03:32:00,
2013-06-18 20:43:00,58.0,50.0,29.78,NW,305,2.0,-999.0,76,-99.99,,,-99.99,,2013-06-19 03:43:00,
2013-06-18 20:52:00,56.0,49.0,29.79,NW,305,3.0,-999.0,78,-99.99,,,-99.99,,2013-06-19 03:52:00,
2013-06-18 21:01:00,56.0,49.0,29.79,NW,305,3.0,-999.0,78,-99.99,,,-99.99,,2013-06-19 04:01:00,
2013-06-18 21:11:00,56.0,50.0,29.80,WNW,288,3.0,-999.0,79,-99.99,,,-99.99,,2013-06-19 04:11:00,
2013-06-18 21:22:00,56.0,50.0,29.80,WNW,288,3.0,-999.0,79,-99.99,,,-99.99,,2013-06-19 04:22:00,
2013-06-18 21:32:00,55.0,49.0,29.81,WNW,292,3.0,-999.0,80,-99.99,,,-99.99,,2013-06-19 04:32:00,
2013-06-18 21:42:00,55.0,49.0,29.80,WNW,290,5.0,-999.0,80,-99.99,,,-99.99,,2013-06-19 04:42:00,
2013-06-18 21:52:00,55.0,49.0,29.80,WNW,290,5.0,-999.0,80,-99.99,,,-99.99,,2013-06-19 04:52:00,
2013-06-18 22:01:00,55.0,49.0,29.80,WNW,290,5.0,-999.0,80,-99.99,,,-99.99,,2013-06-19 05:01:00,
2013-06-18 22:11:00,55.0,49.0,29.81,NW,318,6.0,-999.0,81,-99.99,,,-99.99,,2013-06-19 05:11:00,
2013-06-18 22:22:00,54.0,49.0,29.81,NW,309,2.0,-999.0,82,-99.99,,,-99.99,,2013-06-19 05:22:00,
2013-06-18 22:32:00,54.0,49.0,29.81,NW,309,2.0,-999.0,82,-99.99,,,-99.99,,2013-06-19 05:32:00,
2013-06-18 22:42:00,54.0,49.0,29.80,WNW,298,3.0,-999.0,83,-99.99,,,-99.99,,2013-06-19 05:42:00,
2013-06-18 22:52:00,54.0,49.0,29.78,WNW,303,3.0,-999.0,84,-99.99,,,-99.99,,2013-06-19 05:52:00,
2013-06-18 23:01:00,54.0,49.0,29.78,WNW,303,3.0,-999.0,84,-99.99,,,-99.99,,2013-06-19 06:01:00,
2013-06-18 23:11:00,53.0,48.0,29.78,WNW,303,0.0,-999.0,84,-99.99,,,-99.99,,2013-06-19 06:11:00,
2013-06-18 23:21:00,53.0,48.0,29.78,WNW,303,0.0,-999.0,84,-99.99,,,-99.99,,2013-06-19 06:21:00,
2013-06-18 23:33:00,54.0,49.0,29.78,East,82,1.0,-999.0,84,-99.99,,,-99.99,,2013-06-19 06:33:00,
2013-06-18 23:42:00,54.0,50.0,29.78,East,82,0.0,-999.0,85,-99.99,,,-99.99,,2013-06-19 06:42:00,
2013-06-18 23:52:00,53.0,49.0,29.79,SSE,163,0.0,-999.0,87,-99.99,,,-99.99,,2013-06-19 06:52:00,